Regional Weather Roundup
Issued by NWS

Home | Current Version | Previous Version | Text Only | Print | Product List | Glossary Off
Versions: 1 2 3 4 5 6 7 8 9 10 11 12 13 14 15 16 17 18 19 20 21 22 23 24 25 26 27 28 29 30 31 32 33 34 35 36 37 38 39 40 41 42 43 44 45 46 47 48 49 50

000
ASUS45 KBOU 270507
RWRCO

WEATHER ROUNDUP FOR COLORADO
NATIONAL WEATHER SERVICE DENVER/BOULDER CO
1100 PM MDT FRI MAY 26 2017

NOTE: "FAIR" INDICATES FEW OR NO CLOUDS BELOW 12000 FEET WITH NO
SIGNIFICANT WEATHER AND/OR OBSTRUCTIONS TO VISIBILITY.

COZ001>005-013-030-031-270600-
...NORTHWEST COLORADO...

CITY           SKY/WX    TMP DP  RH WIND       PRES   REMARKS
CRAIG          LGT RAIN  47  39  74 W10       30.09R
HAYDEN         MOCLDY    46  36  66 N7        30.07R
MEEKER         LGT RAIN  50  41  71 N14       30.05R
RABBIT EARS PA NOT AVBL
STEAMBOAT SPGS NOT AVBL
WALDEN         NOT AVBL
$$

COZ006>008-011-270600-
...WEST CENTRAL VALLEYS...

CITY           SKY/WX    TMP DP  RH WIND       PRES   REMARKS
GRAND JUNCTION FAIR      70  26  19 NW14      29.85R
MONTROSE       FAIR      58  19  22 SE12      29.95R
EAGLE          FAIR      61  25  25 S3        29.96R
RIFLE          MOCLDY    63  36  36 NW17G31   29.96R
DELTA          FAIR      69  14  12 SW3       29.87S
NUCLA          FAIR      61  12  15 S8        29.97R
$$

COZ017>023-064>068-270600-
...SOUTHWEST COLORADO...

CITY           SKY/WX    TMP DP  RH WIND       PRES   REMARKS
DURANGO        FAIR      52  14  22 NE3       30.03R
CORTEZ         FAIR      56  25  30 S10       29.98R
PAGOSA SPRINGS FAIR      48  12  23 CALM      30.09S
TELLURIDE      FAIR      53  11  18 S5        30.16S
WOLF CREEK PAS NOT AVBL
$$

COZ009-010-012-014-032>034-037-058>063-270600-
...CENTRAL COLORADO...

CITY           SKY/WX    TMP DP  RH WIND       PRES   REMARKS
ASPEN          FAIR      53  20  27 SE21      30.01R
BUENA VISTA    FAIR      42  22  45 W5        30.04S
COPPER MTN     NOT AVBL
BERTHOUD PASS  NOT AVBL
COTTONWOOD PAS NOT AVBL
GUNNISON       FAIR      45  23  42 E6        30.05R
KREMMLING      NOT AVBL
LEADVILLE      FAIR      42  11  28 CALM      30.13R
SALIDA         FAIR      54  16  22 W12       30.10R
SUNLIGHT       NOT AVBL
WILKERSON PASS NOT AVBL
$$

COZ069>075-270600-
...SAN LUIS VALLEY/SANGRE DE CRISTO MOUNTAINS...

CITY           SKY/WX    TMP DP  RH WIND       PRES   REMARKS
ALAMOSA        FAIR      47  22  37 SW12      30.06R
DEL NORTE      NOT AVBL
LA VETA PASS   NOT AVBL
SAGUACHE       NOT AVBL
$$

COZ035-036-038>040-270600-
...NORTHERN COLORADO FRONT RANGE...

CITY           SKY/WX    TMP DP  RH WIND       PRES   REMARKS
DENVER INTL AP MOCLDY    51  44  77 N24G33    30.00R
DMNS CITY PARK   N/A     53  43  69 N14G21    30.05R
AURORA         CLOUDY    50  44  78 N20       30.04R
FRONT RANGE AP NOT AVBL
ERIE MUNI ARPT NOT AVBL
BOULDER MUN AP NOT AVBL
CENTENNIAL     CLOUDY    52  43  71 N22G29    30.04R
BROOMFIELD     NOT AVBL
FORT COLLINS   FAIR      51  45  79 N15       30.01R
LONGMONT       NOT AVBL
$$

COZ041-046-047-076>085-087-088-270600-
...PIKES PEAK/PALMER DIVIDE AND SOUTHERN FOOTHILLS...

CITY           SKY/WX    TMP DP  RH WIND       PRES   REMARKS
COLO. SPRINGS  FAIR      58  46  64 N24G32    29.96R
A. F. ACADEMY  FAIR      54  48  80 N18       30.00R
SCHRIEVER AFB  FAIR      56  40  55 NW20G30   29.96R
CHEYENNE MTN   FAIR      57  39  51 NW17G23   29.94R
ELLICOTT       FAIR     N/A N/A N/A E13       29.90R
FALCON         FAIR      53  46  77 N25G31    30.01R
FORT CARSON    FAIR      55  43  63 N23G29    29.93R
LIMON          FAIR      56  46  69 SE15      29.88R
MONUMENT HILL  NOT AVBL
CANON CITY     NOT AVBL
WALSENBURG     FAIR      59  23  25 W13       29.93S
TRINIDAD       FAIR      58  22  24 SW9       29.93R
$$

COZ042>045-048>051-090-091-270600-
...NORTHEAST COLORADO...

CITY           SKY/WX    TMP DP  RH WIND       PRES   REMARKS
GREELEY ARPT   FAIR      52  47  83 N20G28    30.01R
AKRON          FAIR      52  47  83 N22G29    29.93R
BURLINGTON     CLOUDY    54  49  83 NE7       29.94R
WRAY           FAIR      57  48  72 SE25G35   29.83S
YUMA           NOT AVBL
STERLING       NOT AVBL
HOLYOKE        NOT AVBL
FORT MORGAN    MOCLDY    51  48  88 N20G29    29.94R
$$

COZ086-089-092>099-270600-
...SOUTHEAST COLORADO...

CITY           SKY/WX    TMP DP  RH WIND       PRES   REMARKS
PUEBLO         FAIR      60  43  53 SE6       29.83R
LA JUNTA       FAIR      65  31  28 SW14      29.79R
LAMAR          FAIR      69  49  48 S18G33    29.77R
SPRINGFIELD      N/A     59  49  69 SW8       29.86R
$$



USA.gov is the U.S. government's official web portal to all federal, state and local government web resources and services.